Weather History for Louisville, KY

Change the Weather History Date:

Monday, August 5, 2013

  Actual Average Record
Temperature  
Mean Temperature 73 °F 79 °F  
Max Temperature 84 °F 89 °F 105 °F (1918)
Min Temperature 61 °F 70 °F 55 °F (1951)
Degree Days  
Heating Degree Days 0 0  
Month to date heating degree days 0 0  
Since 1 June heating degree days 0 5  
Since 1 July heating degree days 0 0  
Cooling Degree Days 8 14  
Month to date cooling degree days 53 70  
Year to date cooling degree days 990 1011  
Since 1 June cooling degree days 762 837  
Growing Degree Days 22 (Base 50)    
Moisture  
Dew Point 56 °F    
Average Humidity 61    
Maximum Humidity 84    
Minimum Humidity 37    
Precipitation  
Precipitation 0.00 in 0.11 in 2.11 in (1903)
Month to date precipitation 0.01 0.61  
Year to date precipitation 28.62 28.50  
Snow  
Snow 0.00 in 0.00 in - ()
Month to date snowfall 0.0 0.0  
Since 1 June snowfall 0.0 0.0  
Since 1 July snowfall 0.0 0.0  
Snow Depth 0.00 in    
Sea Level Pressure  
Sea Level Pressure 30.04 in    
Wind  
Wind Speed 4 mph (SSE)    
Max Wind Speed 12 mph    
Max Gust Speed 20 mph    
Visibility 10 miles    
Events      
T = Trace of Precipitation, MM = Missing Value Source: NWS Daily Summary

Daily Weather History Graph

Daily Weather History Graph

Search for Another Location

Airport:

Trip Planner

Search our weather history database for the weather conditions in past years. The results will help you decide how hot, cold, wet, or windy it might be!

Date:

Astronomy

Aug. 05, 2013 Rise Set
Actual Time 6:49 AM EDT 8:47 PM EDT
Civil Twilight 6:20 AM EDT 9:16 PM EDT
Nautical Twilight 5:45 AM EDT 9:51 PM EDT
Astronomical Twilight 5:06 AM EDT 10:29 PM EDT
Moon 5:43 AM EDT (8/5) 7:48 PM EDT (8/5)
Length of Visible Light 14h 56m
Length of Day
13h 58m
Waning Crescent, 1% of the Moon is Illuminated
Aug 5
Waning Crescent
Aug 6
New
Aug 14
First Quarter
Aug 20
Full
Aug 28
Last Quarter

Hourly Weather History & Observations

Time (EDT) Temp. Heat Index Dew Point Humidity Pressure Visibility Wind Dir Wind Speed Gust Speed Precip Events Conditions
12:56 AM 68.0 °F - 57.0 °F 68% 30.11 in 10.0 mi Calm Calm - N/A   Scattered Clouds
1:56 AM 66.0 °F - 57.0 °F 73% 30.09 in 10.0 mi SW 3.5 mph - N/A   Scattered Clouds
2:56 AM 63.0 °F - 57.0 °F 81% 30.10 in 10.0 mi Calm Calm - N/A   Scattered Clouds
3:56 AM 63.0 °F - 57.0 °F 81% 30.10 in 10.0 mi Calm Calm - N/A   Scattered Clouds
4:56 AM 64.0 °F - 57.0 °F 78% 30.10 in 10.0 mi Calm Calm - N/A   Scattered Clouds
5:56 AM 63.0 °F - 57.0 °F 81% 30.09 in 10.0 mi Calm Calm - N/A   Scattered Clouds
6:56 AM 63.0 °F - 57.0 °F 81% 30.10 in 10.0 mi Calm Calm - N/A   Scattered Clouds
7:56 AM 63.0 °F - 57.9 °F 84% 30.11 in 10.0 mi Calm Calm - N/A   Partly Cloudy
8:56 AM 68.0 °F - 57.0 °F 68% 30.12 in 10.0 mi Calm Calm - N/A   Partly Cloudy
9:56 AM 71.1 °F - 57.0 °F 61% 30.10 in 10.0 mi Calm Calm - N/A   Clear
10:56 AM 75.0 °F - 57.0 °F 53% 30.09 in 10.0 mi SE 4.6 mph - N/A   Clear
11:56 AM 78.1 °F - 55.0 °F 45% 30.07 in 10.0 mi Calm Calm - N/A   Partly Cloudy
12:56 PM 80.1 °F 80.1 °F 55.0 °F 42% 30.06 in 10.0 mi Variable 4.6 mph - N/A   Partly Cloudy
1:56 PM 80.1 °F 79.9 °F 53.1 °F 39% 30.04 in 10.0 mi Variable 3.5 mph - N/A   Scattered Clouds
2:56 PM 81.0 °F 80.4 °F 53.1 °F 38% 30.04 in 10.0 mi ESE 4.6 mph - N/A   Scattered Clouds
3:56 PM 82.0 °F 81.3 °F 54.0 °F 38% 30.01 in 10.0 mi Variable 3.5 mph - N/A   Scattered Clouds
4:56 PM 82.9 °F 82.1 °F 55.9 °F 39% 29.99 in 10.0 mi SE 6.9 mph - N/A   Mostly Cloudy
5:56 PM 82.0 °F 81.6 °F 55.9 °F 41% 29.98 in 10.0 mi SE 3.5 mph - N/A   Mostly Cloudy
6:56 PM 81.0 °F 80.8 °F 55.9 °F 42% 29.96 in 10.0 mi South 8.1 mph - N/A   Scattered Clouds
7:56 PM 80.1 °F 80.1 °F 55.0 °F 42% 29.94 in 10.0 mi SE 8.1 mph - N/A   Scattered Clouds
8:56 PM 79.0 °F - 57.0 °F 47% 29.94 in 10.0 mi SE 9.2 mph - N/A   Mostly Cloudy
9:56 PM 77.0 °F - 57.0 °F 50% 29.96 in 10.0 mi SSE 8.1 mph - N/A   Mostly Cloudy
10:56 PM 75.0 °F - 57.9 °F 55% 29.96 in 10.0 mi SE 5.8 mph - N/A   Overcast
11:56 PM 75.0 °F - 59.0 °F 57% 29.96 in 10.0 mi SSE 4.6 mph - N/A   Overcast